KF0DL Weather Reports


Display with metric or nautical units.
time (UTC)temp
F
wind
direction
speed
MPH
gust
MPH
rain 1hr
in
rain 24hr
in
rain mn
in
humidity
%
barometer
mb
20260502130325 47 208 5.0 10.0 0.00 0.00 0.00 46 1019.1
20260502123331 46 256 3.0 11.0 0.00 0.00 0.00 46 1018.7
20260502122818 46 161 4.0 11.0 0.00 0.00 0.00 46 1019.0
20260502122329 46 200 3.0 7.0 0.00 0.00 0.00 46 1019.0
20260502121836 45 232 4.0 7.0 0.00 0.00 0.00 46 1019.0
20260502121324 45 224 2.0 7.0 0.00 0.00 0.00 46 1019.0
20260502120828 45 234 4.0 7.0 0.00 0.00 0.00 47 1019.0
20260502120334 45 236 4.0 7.0 0.00 0.00 0.00 47 1019.0
20260502115820 45 251 4.0 8.0 0.00 0.00 0.00 48 1019.3
20260502115329 45 241 4.0 8.0 0.00 0.00 0.00 48 1019.3
20260502114820 45 234 2.0 7.0 0.00 0.00 0.00 48 1019.3
20260502114328 44 206 2.0 7.0 0.00 0.00 0.00 48 1019.3
20260502113834 44 196 2.0 7.0 0.00 0.00 0.00 48 1019.4
20260502113324 44 216 2.0 5.0 0.00 0.00 0.00 48 1019.4
20260502112831 44 248 2.0 6.0 0.00 0.00 0.00 48 1019.4
20260502112318 45 210 2.0 5.0 0.00 0.00 0.00 48 1019.4
20260502111824 45 208 2.0 5.0 0.00 0.00 0.00 47 1019.4
20260502111332 45 232 2.0 7.0 0.00 0.00 0.00 47 1019.4
20260502110820 45 246 3.0 7.0 0.00 0.00 0.00 47 1019.5
20260502110326 45 224 3.0 7.0 0.00 0.00 0.00 47 1019.5
20260502105837 45 220 4.0 8.0 0.00 0.00 0.00 47 1019.5
20260502105325 45 316 3.0 7.0 0.00 0.00 0.00 47 1019.5
20260502104831 45 265 2.0 7.0 0.00 0.00 0.00 47 1019.5
20260502104320 45 220 2.0 7.0 0.00 0.00 0.00 47 1019.4
20260502103827 45 232 3.0 6.0 0.00 0.00 0.00 47 1019.4
20260502103334 45 232 3.0 6.0 0.00 0.00 0.00 47 1019.4
20260502102820 45 216 3.0 7.0 0.00 0.00 0.00 47 1019.4
20260502102328 45 239 4.0 7.0 0.00 0.00 0.00 47 1019.4
20260502101833 45 244 2.0 8.0 0.00 0.00 0.00 47 1019.4
20260502101325 45 233 6.0 11.0 0.00 0.00 0.00 46 1019.4
20260502100830 45 217 3.0 11.0 0.00 0.00 0.00 46 1019.6
20260502100318 45 226 6.0 11.0 0.00 0.00 0.00 46 1019.6
20260502091338 45 216 5.0 11.0 0.00 0.00 0.00 46 1019.6
20260502090826 45 199 4.0 11.0 0.00 0.00 0.00 46 1019.9
20260502090332 45 233 3.0 10.0 0.00 0.00 0.00 47 1019.9
20260502071320 46 247 4.0 6.0 0.00 0.00 0.00 45 1021.2
20260502070830 46 219 1.0 7.0 0.00 0.00 0.00 45 1021.2
20260502070322 46 236 5.0 7.0 0.00 0.00 0.00 45 1021.2
20260502065829 46 244 1.0 6.0 0.00 0.00 0.00 45 1021.2
20260502065336 46 154 1.0 6.0 0.00 0.00 0.00 45 1021.2
20260502064824 46 232 1.0 7.0 0.00 0.00 0.00 45 1021.2
20260502064333 46 206 2.0 7.0 0.00 0.00 0.00 45 1021.2
20260502063820 46 236 2.0 6.0 0.00 0.00 0.00 44 1021.3
20260502063326 46 220 3.0 6.0 0.00 0.00 0.00 44 1021.3
20260502062834 46 234 3.0 8.0 0.00 0.00 0.00 44 1021.3
20260502062321 46 258 5.0 8.0 0.00 0.00 0.00 43 1021.4
20260502061832 46 257 5.0 8.0 0.00 0.00 0.00 43 1021.4
20260502061319 46 220 7.0 8.0 0.00 0.00 0.00 44 1021.6
20260502060829 46 241 5.0 8.0 0.00 0.00 0.00 44 1021.6
20260502060336 46 248 4.0 6.0 0.00 0.00 0.00 44 1021.6
20260502055824 46 239 3.0 8.0 0.00 0.00 0.00 44 1021.6
20260502055331 46 258 4.0 7.0 0.00 0.00 0.00 43 1021.6
20260502054837 47 244 3.0 8.0 0.00 0.00 0.00 43 1021.6
20260502054327 47 254 4.0 8.0 0.00 0.00 0.00 43 1021.6
20260502053832 47 244 3.0 7.0 0.00 0.00 0.00 42 1021.6
20260502053322 47 243 3.0 6.0 0.00 0.00 0.00 42 1021.6
20260502052830 47 243 2.0 6.0 0.00 0.00 0.00 42 1021.6
20260502052336 47 232 2.0 6.0 0.00 0.00 0.00 42 1021.6
20260502051824 48 220 2.0 6.0 0.00 0.00 0.00 41 1021.6
20260502051332 48 261 2.0 10.0 0.00 0.00 0.00 41 1021.6
20260502050837 48 224 5.0 10.0 0.00 0.00 0.00 41 1021.9
20260502050325 48 251 4.0 7.0 0.00 0.00 0.00 40 1021.9
20260502045831 48 229 4.0 7.0 0.00 0.00 0.00 40 1021.9
20260502045337 48 220 4.0 8.0 0.00 0.00 0.00 40 1022.0
20260502044823 48 241 5.0 8.0 0.00 0.00 0.00 40 1022.0
20260502044336 48 230 4.0 7.0 0.00 0.00 0.00 40 1022.0
20260502043824 49 248 3.0 7.0 0.00 0.00 0.00 40 1022.0
20260502043329 49 223 2.0 2.0 0.00 0.00 0.00 40 1022.0
20260502042837 49 223 0.0 4.0 0.00 0.00 0.00 39 1022.0
20260502042324 49 247 2.0 4.0 0.00 0.00 0.00 39 1022.1
20260502041833 49 212 1.0 3.0 0.00 0.00 0.00 39 1022.1
20260502041321 49 212 2.0 2.0 0.00 0.00 0.00 39 1022.4
20260502040828 50 212 1.0 2.0 0.00 0.00 0.00 38 1022.4
20260502040335 50 212 2.0 2.0 0.00 0.00 0.00 38 1022.4
20260502035827 50 212 1.0 3.0 0.00 0.00 0.00 38 1022.4
20260502035333 50 212 1.0 3.0 0.00 0.00 0.00 37 1022.3
20260502034821 50 229 1.0 2.0 0.00 0.00 0.00 37 1022.3
20260502034329 51 229 1.0 3.0 0.00 0.00 0.00 37 1022.3
20260502033836 51 229 1.0 5.0 0.00 0.00 0.00 37 1022.2
20260502033323 51 234 2.0 5.0 0.00 0.00 0.00 37 1022.2
20260502032831 51 212 0.0 4.0 0.00 0.00 0.00 37 1022.2
20260502032338 52 195 0.0 2.0 0.00 0.00 0.00 36 1022.2
20260502031823 52 195 1.0 2.0 0.00 0.00 0.00 36 1022.2
20260502031331 52 195 1.0 2.0 0.00 0.00 0.00 35 1022.2
20260502030821 53 195 1.0 2.0 0.00 0.00 0.00 35 1022.3
20260502030326 53 195 1.0 2.0 0.00 0.00 0.00 34 1022.3
20260502025833 53 195 1.0 2.0 0.00 0.00 0.00 34 1022.3
20260502025319 54 195 1.0 2.0 0.00 0.00 0.00 33 1022.3
20260502024825 54 195 1.0 3.0 0.00 0.00 0.00 32 1022.3
20260502024332 54 195 1.0 3.0 0.00 0.00 0.00 32 1022.3
20260502023819 54 213 0.0 5.0 0.00 0.00 0.00 31 1022.1
20260502023326 55 227 2.0 5.0 0.00 0.00 0.00 31 1022.1
20260502022835 55 220 0.0 3.0 0.00 0.00 0.00 31 1022.1
20260502022324 55 220 1.0 2.0 0.00 0.00 0.00 30 1021.9
20260502021832 56 220 1.0 2.0 0.00 0.00 0.00 30 1021.9
20260502021338 56 220 1.0 2.0 0.00 0.00 0.00 29 1021.9
20260502020826 56 220 0.0 2.0 0.00 0.00 0.00 29 1022.2
20260502020334 57 210 1.0 3.0 0.00 0.00 0.00 29 1022.2
20260502015821 57 220 1.0 3.0 0.00 0.00 0.00 28 1022.2
20260502015328 58 206 0.0 4.0 0.00 0.00 0.00 28 1022.2
20260502014838 58 206 1.0 4.0 0.00 0.00 0.00 28 1022.2
20260502014326 58 236 2.0 3.0 0.00 0.00 0.00 28 1022.2
20260502013833 59 243 0.0 2.0 0.00 0.00 0.00 27 1022.1
20260502013322 59 241 0.0 2.0 0.00 0.00 0.00 27 1022.1
20260502012830 59 241 1.0 3.0 0.00 0.00 0.00 27 1022.1
20260502012338 59 243 1.0 3.0 0.00 0.00 0.00 26 1022.1
20260502011825 60 232 2.0 3.0 0.00 0.00 0.00 26 1022.1
20260502011331 60 236 2.0 3.0 0.00 0.00 0.00 26 1022.1
20260502010838 60 220 2.0 5.0 0.00 0.00 0.00 26 1021.4
20260502010323 61 220 0.0 3.0 0.00 0.00 0.00 26 1021.4
20260502005832 61 219 1.0 3.0 0.00 0.00 0.00 26 1021.4
20260502005338 61 248 1.0 3.0 0.00 0.00 0.00 25 1021.5
20260502004830 61 248 2.0 4.0 0.00 0.00 0.00 24 1021.5
20260502004337 62 233 2.0 5.0 0.00 0.00 0.00 25 1021.5
20260502003824 62 237 3.0 5.0 0.00 0.00 0.00 24 1021.6
20260502003331 62 240 0.0 7.0 0.00 0.00 0.00 24 1021.6
20260502002819 62 224 4.0 7.0 0.00 0.00 0.00 23 1022.5
20260502002327 62 246 2.0 8.0 0.00 0.00 0.00 23 1022.5
20260502001833 63 220 3.0 8.0 0.00 0.00 0.00 24 1022.5
20260502001321 63 236 1.0 3.0 0.00 0.00 0.00 23 1022.7
20260502000831 63 239 1.0 6.0 0.00 0.00 0.00 23 1021.7
20260502000321 63 233 3.0 6.0 0.00 0.00 0.00 23 1021.7
20260501235828 63 359 2.0 6.0 0.00 0.00 0.00 24 1021.7
20260501235334 63 284 2.0 10.0 0.00 0.00 0.00 23 1021.8
20260501234820 64 305 3.0 10.0 0.00 0.00 0.00 22 1021.8
20260501234327 64 346 1.0 6.0 0.00 0.00 0.00 22 1021.8
20260501233834 64 312 3.0 10.0 0.00 0.00 0.00 23 1021.8
20260501233326 64 319 3.0 10.0 0.00 0.00 0.00 22 1021.8
20260501232828 64 320 5.0 8.0 0.00 0.00 0.00 22 1021.8
20260501232333 64 333 4.0 8.0 0.00 0.00 0.00 22 1021.8
20260501231819 64 243 4.0 8.0 0.00 0.00 0.00 23 1021.8
20260501231331 63 237 4.0 12.0 0.00 0.00 0.00 23 1021.8
20260501230837 63 263 3.0 12.0 0.00 0.00 0.00 22 1021.9
20260501230322 64 309 3.0 12.0 0.00 0.00 0.00 23 1021.9
20260501225830 63 241 2.0 12.0 0.00 0.00 0.00 23 1021.9
20260501225337 63 336 5.0 12.0 0.00 0.00 0.00 24 1022.0
20260501224825 63 330 5.0 8.0 0.00 0.00 0.00 23 1022.0
20260501224332 63 32 3.0 8.0 0.00 0.00 0.00 23 1022.0
20260501223820 62 116 1.0 7.0 0.00 0.00 0.00 24 1022.2
20260501223327 62 37 3.0 6.0 0.00 0.00 0.00 25 1022.2
20260501222834 61 55 1.0 5.0 0.00 0.00 0.00 25 1022.2
20260501222325 60 258 1.0 4.0 0.00 0.00 0.00 25 1022.4
20260501221833 60 27 1.0 6.0 0.00 0.00 0.00 26 1022.4
20260501221319 60 38 4.0 8.0 0.00 0.00 0.00 25 1022.3
20260501220827 61 13 6.0 7.0 0.00 0.00 0.00 25 1022.3
20260501220334 61 54 1.0 7.0 0.00 0.00 0.00 25 1022.3
20260501215821 61 318 2.0 10.0 0.00 0.00 0.00 24 1022.6
20260501215332 61 82 5.0 8.0 0.00 0.00 0.00 25 1022.6
20260501214838 61 360 1.0 6.0 0.00 0.00 0.00 25 1022.6
20260501214326 60 55 1.0 7.0 0.00 0.00 0.00 27 1022.6
20260501213836 60 336 3.0 7.0 0.00 0.00 0.00 26 1022.7
20260501213324 60 318 4.0 7.0 0.00 0.00 0.00 26 1022.7
20260501212831 60 316 0.0 7.0 0.00 0.00 0.00 28 1022.7
20260501212338 60 323 2.0 7.0 0.00 0.00 0.00 27 1022.8
20260501211825 60 356 4.0 6.0 0.00 0.00 0.00 26 1022.8
20260501211332 60 357 4.0 6.0 0.00 0.00 0.00 27 1022.8
20260501210819 60 11 3.0 10.0 0.00 0.00 0.00 28 1022.9
20260501210327 60 112 4.0 10.0 0.00 0.00 0.00 27 1022.9
20260501205835 59 25 2.0 10.0 0.00 0.00 0.00 28 1022.9
20260501205325 60 278 5.0 12.0 0.00 0.00 0.00 26 1022.9
20260501204833 60 69 8.0 12.0 0.00 0.00 0.00 27 1022.9
20260501204321 60 42 5.0 10.0 0.00 0.00 0.00 27 1023.0
20260501203828 59 51 1.0 6.0 0.00 0.00 0.00 28 1023.0
20260501203332 59 78 2.0 9.0 0.00 0.00 0.00 27 1023.0
20260501202819 59 48 7.0 10.0 0.00 0.00 0.00 28 1023.0
20260501202329 59 344 6.0 10.0 0.00 0.00 0.00 27 1023.0
20260501201835 59 356 4.0 10.0 0.00 0.00 0.00 28 1023.0
20260501201321 59 44 4.0 10.0 0.00 0.00 0.00 27 1023.0
20260501200832 59 92 2.0 10.0 0.00 0.00 0.00 28 1023.0
20260501200323 59 52 5.0 10.0 0.00 0.00 0.00 28 1023.0
20260501195831 59 44 5.0 8.0 0.00 0.00 0.00 28 1023.0
20260501195337 59 20 3.0 7.0 0.00 0.00 0.00 28 1023.2
20260501194824 59 335 2.0 16.0 0.00 0.00 0.00 27 1023.2
20260501194332 59 10 5.0 16.0 0.00 0.00 0.00 27 1023.2
20260501193837 59 42 5.0 10.0 0.00 0.00 0.00 27 1022.9
20260501193325 60 337 5.0 10.0 0.00 0.00 0.00 26 1022.9
20260501192830 60 61 5.0 10.0 0.00 0.00 0.00 27 1022.9
20260501192320 60 97 3.0 6.0 0.00 0.00 0.00 26 1023.1
20260501191830 60 73 3.0 6.0 0.00 0.00 0.00 28 1023.1
20260501191336 59 243 2.0 10.0 0.00 0.00 0.00 28 1023.1
20260501190824 59 329 3.0 14.0 0.00 0.00 0.00 28 1023.0
20260501190332 59 352 5.0 14.0 0.00 0.00 0.00 28 1023.0
20260501185839 59 61 2.0 7.0 0.00 0.00 0.00 29 1023.0
20260501185326 58 8 2.0 9.0 0.00 0.00 0.00 29 1023.3
20260501184833 58 3 5.0 9.0 0.00 0.00 0.00 30 1023.3
20260501184320 58 360 3.0 11.0 0.00 0.00 0.00 29 1023.3
20260501183827 58 326 8.0 11.0 0.00 0.00 0.00 29 1023.3
20260501183335 58 7 6.0 11.0 0.00 0.00 0.00 29 1023.3
20260501182826 58 322 4.0 11.0 0.00 0.00 0.00 29 1023.3
20260501182333 57 339 3.0 10.0 0.00 0.00 0.00 29 1023.3
20260501181819 57 316 3.0 10.0 0.00 0.00 0.00 30 1023.3
20260501181327 57 48 6.0 10.0 0.00 0.00 0.00 30 1023.3
20260501180834 56 311 3.0 8.0 0.00 0.00 0.00 31 1023.4
20260501180319 56 246 2.0 10.0 0.00 0.00 0.00 32 1023.4
20260501175830 56 6 4.0 10.0 0.00 0.00 0.00 34 1023.4
20260501175337 56 344 3.0 9.0 0.00 0.00 0.00 32 1023.6
20260501174823 55 254 5.0 10.0 0.00 0.00 0.00 33 1023.6
20260501174332 55 280 5.0 11.0 0.00 0.00 0.00 34 1023.6
20260501173819 54 309 0.0 11.0 0.00 0.00 0.00 34 1024.0
20260501173328 54 357 3.0 12.0 0.00 0.00 0.00 33 1024.0
20260501172836 54 47 7.0 12.0 0.00 0.00 0.00 32 1024.0
20260501172322 54 333 6.0 12.0 0.00 0.00 0.00 34 1023.9
20260501171830 54 56 6.0 12.0 0.00 0.00 0.00 33 1023.9
20260501171336 54 17 5.0 9.0 0.00 0.00 0.00 33 1023.9
20260501170823 54 89 3.0 7.0 0.00 0.00 0.00 33 1023.9
20260501170329 54 299 5.0 6.0 0.00 0.00 0.00 33 1023.9
20260501165821 53 243 2.0 9.0 0.00 0.00 0.00 33 1023.9
20260501165328 53 304 2.0 9.0 0.00 0.00 0.00 33 1023.9
20260501164836 53 175 3.0 7.0 0.00 0.00 0.00 35 1023.9
20260501164321 52 339 2.0 7.0 0.00 0.00 0.00 35 1024.1
20260501163831 52 308 2.0 6.0 0.00 0.00 0.00 35 1024.1
20260501163319 51 302 3.0 6.0 0.00 0.00 0.00 35 1024.1
20260501162826 51 10 3.0 6.0 0.00 0.00 0.00 36 1024.1
20260501162333 50 239 1.0 6.0 0.00 0.00 0.00 38 1024.0
20260501161819 50 360 1.0 6.0 0.00 0.00 0.00 38 1024.0
20260501161327 50 308 4.0 6.0 0.00 0.00 0.00 39 1024.0
20260501160837 49 343 1.0 6.0 0.00 0.00 0.00 38 1024.1
20260501160322 49 356 4.0 7.0 0.00 0.00 0.00 38 1024.1
20260501155828 49 323 4.0 7.0 0.00 0.00 0.00 38 1024.1
20260501155335 48 360 2.0 4.0 0.00 0.00 0.00 40 1024.3
20260501154821 48 265 2.0 7.0 0.00 0.00 0.00 41 1024.3
20260501154328 47 239 1.0 7.0 0.00 0.00 0.00 42 1024.3
20260501153836 47 232 3.0 7.0 0.00 0.00 0.00 42 1024.4
20260501153323 46 343 3.0 7.0 0.00 0.00 0.00 42 1024.4
20260501152830 46 306 1.0 6.0 0.00 0.00 0.00 42 1024.4
20260501152321 46 330 2.0 7.0 0.00 0.00 0.00 42 1024.6
20260501151827 45 318 2.0 8.0 0.00 0.00 0.00 43 1024.6
20260501151333 45 6 2.0 5.0 0.00 0.00 0.00 43 1024.6
20260501150839 45 296 3.0 5.0 0.00 0.00 0.00 44 1024.3
20260501150327 45 329 1.0 5.0 0.00 0.00 0.00 44 1024.3
20260501145834 45 244 1.0 3.0 0.00 0.00 0.00 45 1024.3
20260501145320 44 198 1.0 2.0 0.00 0.00 0.00 48 1024.5
20260501144826 44 203 1.0 3.0 0.00 0.00 0.00 49 1024.5
20260501144332 43 192 1.0 5.0 0.00 0.00 0.00 49 1024.5
20260501143820 43 158 1.0 5.0 0.00 0.00 0.00 51 1024.6
20260501143331 42 126 1.0 3.0 0.00 0.00 0.00 52 1024.6
20260501142839 42 198 1.0 2.0 0.00 0.00 0.00 53 1024.6
20260501142326 41 198 0.0 2.0 0.00 0.00 0.00 54 1023.9
20260501141833 41 40 1.0 2.0 0.00 0.00 0.00 54 1023.9